TAP22EM LPPT-LPFR

Flight info

Callsign TAP22EM
Flight time 0h 31m
Altitude 23000
Route DUZOP DCT ODEMI
Aircraft A320/M-SDE3FGHIRWY/LB1

Departure

Time 2026-05-04 15:17
Airport Lisbon Humberto Delgado Airport (LPPT)

Arrival

Time 2026-05-04 15:48
Airport Faro - Gago Coutinho International Airport (LPFR)
Time Latitude Longitude Altitude Speed Heading
2026-05-04 14:57 38.77161 -9.13128 334 ft 0 kts 79°
2026-05-04 15:08 38.77159 -9.13140 333 ft 4 kts 79°
2026-05-04 15:08 38.77155 -9.13168 334 ft 2 kts 79°
2026-05-04 15:08 38.77147 -9.13197 333 ft 4 kts 42°
2026-05-04 15:09 38.77127 -9.13206 333 ft 3 kts 347°
2026-05-04 15:09 38.77109 -9.13201 334 ft 0 kts 347°
2026-05-04 15:12 38.77123 -9.13205 333 ft 5 kts 347°
2026-05-04 15:12 38.77187 -9.13223 336 ft 10 kts 348°
2026-05-04 15:12 38.77248 -9.13239 337 ft 8 kts 349°
2026-05-04 15:12 38.77305 -9.13259 333 ft 11 kts 327°
2026-05-04 15:13 38.77322 -9.13341 339 ft 11 kts 259°
2026-05-04 15:13 38.77308 -9.13421 344 ft 9 kts 257°
2026-05-04 15:13 38.77291 -9.13525 355 ft 14 kts 258°
2026-05-04 15:13 38.77266 -9.13672 351 ft 19 kts 259°
2026-05-04 15:14 38.77241 -9.13820 355 ft 13 kts 247°
2026-05-04 15:14 38.77155 -9.13885 358 ft 17 kts 202°
2026-05-04 15:14 38.77030 -9.13951 357 ft 22 kts 202°
2026-05-04 15:14 38.76883 -9.14031 347 ft 21 kts 201°
2026-05-04 15:15 38.76753 -9.14100 349 ft 20 kts 203°
2026-05-04 15:15 38.76639 -9.14159 348 ft 14 kts 201°
2026-05-04 15:15 38.76592 -9.14230 339 ft 11 kts 274°
2026-05-04 15:16 38.76690 -9.14364 337 ft 0 kts 20°
2026-05-04 15:16 38.76692 -9.14363 338 ft 6 kts 20°
2026-05-04 15:16 38.77920 -9.13709 458 ft 161 kts 22°
2026-05-04 15:17 38.78953 -9.13131 1315 ft 164 kts 20°
2026-05-04 15:17 38.81316 -9.11867 2754 ft 209 kts 23°
2026-05-04 15:17 38.82660 -9.10891 3502 ft 235 kts 29°
2026-05-04 15:18 38.84141 -9.09748 4290 ft 260 kts 29°
2026-05-04 15:18 38.85724 -9.08521 5381 ft 270 kts 30°
2026-05-04 15:18 38.87179 -9.06950 6539 ft 280 kts 52°
2026-05-04 15:19 38.87911 -9.02132 8853 ft 292 kts 106°
2026-05-04 15:19 38.87007 -8.99794 10007 ft 295 kts 128°
2026-05-04 15:19 38.83335 -8.97036 11353 ft 331 kts 178°
2026-05-04 15:20 38.81055 -8.97463 12302 ft 335 kts 201°
2026-05-04 15:20 38.78876 -8.98590 13316 ft 339 kts 204°
2026-05-04 15:20 38.76686 -8.99768 14287 ft 344 kts 204°
2026-05-04 15:20 38.74467 -9.00972 15208 ft 349 kts 204°
2026-05-04 15:21 38.72213 -9.02193 16109 ft 354 kts 204°
2026-05-04 15:21 38.69929 -9.03426 16969 ft 358 kts 204°
2026-05-04 15:21 38.65294 -9.05908 18646 ft 368 kts 204°
2026-05-04 15:22 38.62866 -9.07011 19424 ft 374 kts 193°
2026-05-04 15:22 38.60247 -9.07182 20167 ft 381 kts 174°
2026-05-04 15:22 38.55447 -9.04253 21601 ft 394 kts 143°
2026-05-04 15:23 38.53277 -9.02090 22303 ft 398 kts 142°
2026-05-04 15:23 38.51089 -8.99890 22819 ft 402 kts 142°
2026-05-04 15:23 38.48890 -8.97679 22974 ft 402 kts 142°
2026-05-04 15:23 38.46695 -8.95483 23009 ft 399 kts 143°
2026-05-04 15:24 38.42325 -8.91144 23009 ft 397 kts 143°
2026-05-04 15:24 38.37978 -8.86849 23009 ft 397 kts 143°
2026-05-04 15:25 38.35789 -8.84689 23009 ft 397 kts 143°
2026-05-04 15:25 38.33603 -8.82534 23009 ft 397 kts 143°
2026-05-04 15:25 38.31416 -8.80378 23009 ft 397 kts 143°
2026-05-04 15:26 38.27037 -8.76072 23009 ft 397 kts 143°
2026-05-04 15:26 38.24852 -8.73924 23009 ft 397 kts 143°
2026-05-04 15:26 38.20476 -8.69616 23006 ft 398 kts 143°
2026-05-04 15:27 38.18285 -8.67456 23006 ft 398 kts 143°
2026-05-04 15:27 38.13937 -8.63185 23002 ft 398 kts 143°
2026-05-04 15:28 38.09549 -8.58892 23001 ft 398 kts 143°
2026-05-04 15:28 38.07348 -8.56744 23002 ft 398 kts 143°
2026-05-04 15:28 38.02957 -8.52453 23004 ft 398 kts 143°
2026-05-04 15:29 38.00763 -8.50306 23006 ft 398 kts 143°
2026-05-04 15:30 37.92144 -8.41913 21630 ft 384 kts 143°
2026-05-04 15:30 37.85875 -8.35818 20346 ft 377 kts 143°
2026-05-04 15:31 37.81739 -8.31810 19495 ft 372 kts 143°
2026-05-04 15:31 37.79693 -8.29831 19064 ft 370 kts 143°
2026-05-04 15:32 37.73624 -8.23955 17798 ft 363 kts 143°
2026-05-04 15:32 37.69638 -8.20103 16936 ft 358 kts 143°
2026-05-04 15:33 37.65696 -8.16300 16084 ft 354 kts 143°
2026-05-04 15:34 37.59868 -8.10688 14808 ft 347 kts 143°
2026-05-04 15:34 37.57899 -8.08799 14383 ft 365 kts 143°
2026-05-04 15:34 37.53821 -8.04889 13531 ft 369 kts 143°
2026-05-04 15:35 37.49790 -8.01022 12920 ft 366 kts 143°
2026-05-04 15:35 37.47768 -7.99084 12694 ft 365 kts 143°
2026-05-04 15:35 37.45754 -7.97153 12475 ft 364 kts 143°
2026-05-04 15:36 37.41738 -7.93306 12016 ft 361 kts 143°
2026-05-04 15:36 37.39738 -7.91392 11792 ft 360 kts 143°
2026-05-04 15:36 37.37746 -7.89487 11566 ft 359 kts 143°
2026-05-04 15:37 37.35755 -7.87588 11335 ft 358 kts 144°
2026-05-04 15:37 37.33772 -7.85701 11113 ft 357 kts 144°
2026-05-04 15:37 37.31796 -7.83820 10684 ft 355 kts 144°
2026-05-04 15:37 37.29835 -7.81952 10258 ft 352 kts 144°
2026-05-04 15:38 37.27911 -7.80119 9837 ft 350 kts 144°
2026-05-04 15:38 37.25976 -7.78277 9411 ft 348 kts 144°
2026-05-04 15:38 37.24048 -7.76446 8984 ft 346 kts 144°
2026-05-04 15:38 37.22137 -7.74630 8550 ft 344 kts 144°
2026-05-04 15:39 37.20237 -7.72827 8131 ft 341 kts 144°
2026-05-04 15:39 37.18350 -7.71038 7704 ft 339 kts 144°
2026-05-04 15:39 37.14611 -7.67497 6859 ft 335 kts 144°
2026-05-04 15:40 37.12754 -7.65740 6422 ft 333 kts 144°
2026-05-04 15:40 37.10910 -7.64007 5966 ft 327 kts 146°
2026-05-04 15:40 37.08948 -7.62829 5487 ft 299 kts 167°
2026-05-04 15:40 37.06991 -7.62608 5019 ft 275 kts 187°
2026-05-04 15:41 37.05208 -7.63165 4553 ft 256 kts 205°
2026-05-04 15:41 37.03623 -7.64041 4086 ft 242 kts 205°
2026-05-04 15:41 37.02146 -7.64851 3960 ft 218 kts 205°
2026-05-04 15:41 37.00816 -7.65577 3960 ft 201 kts 205°
2026-05-04 15:42 36.99985 -7.66033 3958 ft 192 kts 206°
2026-05-04 15:42 36.98891 -7.66924 3961 ft 184 kts 226°
2026-05-04 15:42 36.98144 -7.68152 3958 ft 173 kts 244°
2026-05-04 15:42 36.97730 -7.70031 3947 ft 170 kts 268°
2026-05-04 15:43 36.97775 -7.71027 3869 ft 170 kts 280°
2026-05-04 15:43 36.97986 -7.72479 3690 ft 170 kts 280°
2026-05-04 15:43 36.98194 -7.73912 3499 ft 165 kts 280°
2026-05-04 15:43 36.98393 -7.75291 3272 ft 161 kts 280°
2026-05-04 15:44 36.98590 -7.76658 3058 ft 158 kts 279°
2026-05-04 15:44 36.98782 -7.77992 2849 ft 154 kts 279°
2026-05-04 15:44 36.98970 -7.79298 2653 ft 151 kts 279°
2026-05-04 15:44 36.99155 -7.80584 2455 ft 149 kts 279°
2026-05-04 15:45 36.99336 -7.81849 2254 ft 146 kts 280°
2026-05-04 15:45 36.99515 -7.83092 2063 ft 145 kts 279°
2026-05-04 15:45 36.99691 -7.84323 1873 ft 144 kts 279°
2026-05-04 15:45 36.99867 -7.85547 1683 ft 142 kts 279°
2026-05-04 15:46 37.00037 -7.86739 1498 ft 135 kts 279°
2026-05-04 15:46 37.00197 -7.87858 1324 ft 127 kts 279°
2026-05-04 15:46 37.00351 -7.88935 1154 ft 124 kts 279°
2026-05-04 15:46 37.00503 -7.89994 997 ft 123 kts 280°
2026-05-04 15:47 37.00651 -7.91040 830 ft 121 kts 280°
2026-05-04 15:47 37.00797 -7.92080 657 ft 121 kts 279°
2026-05-04 15:47 37.00939 -7.93120 521 ft 122 kts 279°
2026-05-04 15:47 37.01082 -7.94167 366 ft 122 kts 280°
2026-05-04 15:48 37.01240 -7.95210 213 ft 123 kts 281°
2026-05-04 15:48 37.01397 -7.96258 25 ft 118 kts 280°
2026-05-04 15:48 37.01572 -7.97487 21 ft 47 kts 281°
2026-05-04 15:49 37.01618 -7.97795 19 ft 18 kts 282°
2026-05-04 15:49 37.01680 -7.97848 22 ft 11 kts 17°
2026-05-04 15:49 37.01727 -7.97801 20 ft 6 kts 52°
2026-05-04 15:49 37.01736 -7.97783 20 ft 5 kts 59°
2026-05-04 15:50 37.01756 -7.97721 20 ft 9 kts 72°
2026-05-04 15:50 37.01768 -7.97655 20 ft 7 kts 82°
2026-05-04 15:50 37.01770 -7.97595 20 ft 7 kts 92°
2026-05-04 15:50 37.01762 -7.97530 20 ft 8 kts 99°
2026-05-04 15:51 37.01753 -7.97461 20 ft 8 kts 100°
2026-05-04 15:51 37.01742 -7.97389 21 ft 9 kts 100°
2026-05-04 15:51 37.01731 -7.97312 20 ft 9 kts 100°
2026-05-04 15:51 37.01719 -7.97232 20 ft 9 kts 100°
2026-05-04 15:52 37.01708 -7.97150 21 ft 10 kts 100°
2026-05-04 15:52 37.01695 -7.97066 21 ft 10 kts 100°
2026-05-04 15:52 37.01683 -7.96979 21 ft 10 kts 100°
2026-05-04 15:52 37.01710 -7.96909 21 ft 10 kts 27°
2026-05-04 15:53 37.01773 -7.96889 21 ft 9 kts 11°
2026-05-04 15:53 37.01821 -7.96856 21 ft 8 kts 60°
2026-05-04 15:53 37.01825 -7.96800 20 ft 6 kts 96°
2026-05-04 15:53 37.01817 -7.96744 20 ft 6 kts 99°
2026-05-04 15:54 37.01836 -7.96708 22 ft 6 kts 14°
2026-05-04 15:54 37.01872 -7.96700 20 ft 3 kts 11°
2026-05-04 15:54 37.01888 -7.96696 20 ft 0 kts 11°
2026-05-04 15:54 37.01889 -7.96696 20 ft 0 kts 11°
2026-05-04 15:55 37.01897 -7.96694 20 ft 1 kts 11°
2026-05-04 15:55 37.01899 -7.96693 20 ft 0 kts 11°